map of ARI home
ARI - Airport
Location
City:  Arica, Arica y Parinacota, Chile
Name:Chacalluta International Airport
ICAO:SCAR
IATA:ARI

Details
Type:Airport (Aerodrome, Airfield)
Use:Public/Civil, International (customs port of entry)
Latitude:1820'55"S (-18.348610)
Longitude:7020'19"W (-70.338610)
Elevation:166 ft (51 m)
Variation:5.82W (WMM2015v2 magnetic declination)
-0.20 annual change
Runways:1
Longest:7119 × 148 ft (2170 × 45 m), paved

Time
Time Zone:UTC-4 (DST-3)
Local Time:

Weather
METAR:SCAR 041400Z 20007KT CAVOK 25/16 Q1012
TAF:SCAR 041029Z 0412/0512 18004KT 9999 BKN050 TX27/0417Z TN24/0506Z
TEMPO 0412/0414 8000 -SHRA OVC050
BECMG 0415/0417 22012KT CAVOK
BECMG 0504/0506 02004KT OVC100

Related Locations
Nearby:
Farthest:SYX: 12432 mi / 20008 km
Sanya [Fenghuang Intl (Phoenix Intl)], 46, CN

Find:

   beyond  
but within

Other Information
Maps:
NOTAMs:
Links:
Sources:

  
  • flag of Chile
  • flag of Arica y Parinacota
  

Sectional Chart

Flight Planning
at skyvector.com

Satellite Image

Google Maps Satellite view

 

Copyright © 2004-2019 Karl L. Swartz. All rights reserved.
The Great Circle Mapper name and logo are trademarks of the Great Circle Mapper.
All other trademarks mentioned herein belong to their respective owners.
Please see credits for attibutions and further copyright information.

  Follow gcmap on Facebook Follow gcmap on Twitter GCmap on LinkedIn

hCard Microformat

Geo Microformat